This demonstration page uses our WeatherBlox Daily Observations layout. Learn more.

Hourly Observations for February 16, 2019

Temp ( °F °C ) Dew Point ( °F °C ) Humidity (%) Winds ( mph kmh ) Pressure ( in mb ) Visibility ( mi km ) Precip ( " mm )
12:54 am 00:54 Clear 8 -13.3 6 -14.4 92 92 NNW 3 6 30.23 1024 10 16.0934 0 0
1:54 am 01:54 Clear 5 -15 2 -16.7 87 87 NNE 5 7 30.2 1023 10 16.0934 0 0
2:54 am 02:54 Clear 4 -15.6 1 -17.2 88 88 Calm 30.19 1022 10 16.0934 0 0
3:54 am 03:54 Clear 2 -16.7 -1 -18.3 88 88 NNW 3 6 30.16 1022 10 16.0934 0 0
4:54 am 04:54 Clear 2 -16.7 0 -17.8 91 91 NW 3 6 30.18 1022 10 16.0934 0 0
5:54 am 05:54 Clear 1 -17.2 -4 -20 79 79 Calm 30.19 1022 8 12.87472 0 0
6:54 am 06:54 Clear 0 -17.8 -3 -19.4 87 87 Calm 30.16 1021 10 16.0934 0 0
7:54 am 07:54 Sunny 0 -17.8 -4 -20 83 83 N 7 11 30.15 1021 10 16.0934 0 0
8:54 am 08:54 Sunny 4 -15.6 0 -17.8 83 83 N 3 6 30.14 1021 10 16.0934 0 0
9:54 am 09:54 Sunny 13 -10.6 7 -13.9 77 77 ENE 6 9 30.11 1020 10 16.0934 0 0
10:54 am 10:54 Mostly Cloudy 16 -8.9 8 -13.3 71 71 SE 5 7 30.07 1018 10 16.0934 0 0
11:54 am 11:54 Mostly Cloudy 19 -7.2 9 -12.8 65 65 E 7 11 30.04 1017 10 16.0934 0 0
12:54 pm 12:54 Cloudy 20 -6.7 10 -12.2 65 65 E 10 17 29.99 1016 10 16.0934 0 0
1:54 pm 13:54 Cloudy 19 -7.2 10 -12.2 68 68 ESE 10 17 29.97 1015 10 16.0934 0 0
2:54 pm 14:54 Cloudy 19 -7.2 9 -12.8 65 65 E 8 13 29.93 1014 10 16.0934 0 0
3:54 pm 15:54 Cloudy 19 -7.2 10 -12.2 68 68 E 10 17 29.9 1013 10 16.0934 0 0
4:54 pm 16:54 Cloudy 19 -7.2 10 -12.2 68 68 undefined N/A 29.89 1012 10 16.0934 0 0.0254
5:54 pm 17:54 Cloudy with Light Snow 19 -7.2 9 -12.8 65 65 ENE 12 19 29.88 1012 6 9.65604 0 0.0254
6:01 pm 18:01 Cloudy with Light Snow 18 -7.8 10 -12.2 71 71 ENE 13 20 29.91 1013 0.75 1.207005 0 0.0254
6:11 pm 18:11 Mostly Cloudy with Scattered Snow Showers 18 -7.8 12 -11.1 77 77 ENE 12 19 29.9 1012 0.75 1.207005 0.01 0.254
6:18 pm 18:18 Mostly Cloudy with Snow 17 -8.3 13 -10.6 84 84 ENE 14 22 29.89 1012 0.5 0.80467 0.01 0.254
6:34 pm 18:34 Mostly Cloudy with Scattered Snow Showers 17 -8.3 13 -10.6 84 84 ENE 10 17 29.91 1013 1 1.60934 0.03 0.762
6:50 pm 18:50 Mostly Cloudy with Scattered Snow Showers 18 -8 14 -10 86 86 ENE 9 15 29.92 1013 0.75 1.207005 0.03 0.762
6:54 pm 18:54 Mostly Cloudy with Scattered Snow Showers 17 -8.3 14 -10 88 88 ENE 7 11 29.89 1012 0.75 1.207005 0.04 1.016
7:08 pm 19:08 Mostly Cloudy with Snow 17 -8.3 14 -10 88 88 NE 7 11 29.92 1013 0.5 0.80467 0.02 0.508
7:42 pm 19:42 Mostly Cloudy with Scattered Snow Showers 17 -8.3 14 -10 88 88 NE 9 15 29.92 1013 1 1.60934 0.04 1.016
7:51 pm 19:51 Cloudy with Light Snow 18 -8 12 -11 79 79 NE 10 17 29.92 1013 1.25 2.011675 0.05 1.27
7:54 pm 19:54 Cloudy with Light Snow 17 -8.3 13 -10.6 84 84 NE 10 17 29.89 1012 1.25 2.011675 0.05 1.27
8:16 pm 20:16 Cloudy with Light Snow 17 -8.3 13 -10.6 84 84 NE 9 15 29.92 1013 1.75 2.816345 0.02 0.508
8:23 pm 20:23 Cloudy with Light Snow 17 -8.3 13 -10.6 84 84 NE 12 19 29.91 1013 2.5 4.02335 0.05 1.27
8:54 pm 20:54 Cloudy with Light Snow 17 -8.3 13 -10.6 84 84 NE 10 17 29.87 1012 2 3.21868 0.06 1.524
9:04 pm 21:04 Cloudy with Light Snow 17 -8.3 13 -10.6 84 84 NE 9 15 29.91 1013 1.25 2.011675 0.01 0.254
9:54 pm 21:54 Cloudy with Light Snow 18 -7.8 14 -10 84 84 NNE 8 13 29.88 1012 1.25 2.011675 0.04 1.016
10:05 pm 22:05 Cloudy with Light Snow 18 -7.8 14 -10 84 84 NNE 7 11 29.92 1013 2 3.21868 0 0.0254
10:17 pm 22:17 Cloudy with Light Snow 18 -7.8 14 -10 84 84 NNE 6 9 29.93 1014 4 6.43736 0.01 0.254
10:54 pm 22:54 Cloudy with Light Snow 18 -7.8 14 -10 84 84 NE 8 13 29.87 1012 6 9.65604 0.01 0.254
11:30 pm 23:30 Cloudy with Light Snow 18 -7.8 14 -10 84 84 NNE 7 11 29.91 1013 2.5 4.02335 0 0.0254
11:54 pm 23:54 Cloudy with Light Snow 18 -7.8 14 -10 84 84 NNE 7 11 29.86 1011 2.5 4.02335 0 0.0254

Powered by AerisWeather